Regional Weather Roundup
Issued by NWS

Home | Current Version | Previous Version | Graphics & Text | Print | Product List | Glossary Off
Versions: 1 2 3 4 5 6 7 8 9 10 11 12 13 14 15 16 17 18 19 20 21 22 23 24 25 26 27 28 29 30 31 32 33 34 35 36 37 38 39 40 41 42 43 44 45 46 47 48 49 50

000
ASUS43 KTOP 272008
RWRKS

WEATHER ROUNDUP FOR KANSAS
NATIONAL WEATHER SERVICE GOODLAND KS
200 PM CST TUE JAN 27 2015

NOTE:  "FAIR" INDICATES FEW OR NO CLOUDS BELOW 12,000 FEET WITH NO
SIGNIFICANT WEATHER AND/OR OBSTRUCTIONS TO VISIBILITY.

KSZ001>006-013>018-027>032-041>047-272100-
NORTHWEST KANSAS

CITY           SKY/WX    TMP DP  RH WIND       PRES   REMARKS
GOODLAND       SUNNY     79  21  11 SW16      30.03F
HAYS           SUNNY     75  34  22 S8        29.99F
HILL CITY      SUNNY     78  30  17 VRB6      29.98F
RUSSELL        SUNNY     70  33  25 S8        29.98F
$$

KSZ061>065-074>080-084>089-272100-
SOUTHWEST KANSAS

CITY           SKY/WX    TMP DP  RH WIND       PRES   REMARKS
DODGE CITY     SUNNY     79  22  12 SW20G26   30.05F
ELKHART          N/A     75  30  19 SW9         N/A
GARDEN CITY    SUNNY     78  24  13 SW20      30.05F
GREAT BEND     SUNNY     81  34  18 SW15G21   29.99F
LIBERAL        SUNNY     79  32  18 SW20      30.09F
PRATT          SUNNY     79  27  14 SW17G26   30.03F
$$

KSZ066>073-081>083-090>101-272100-
SOUTHEAST KANSAS

CITY           SKY/WX    TMP DP  RH WIND       PRES   REMARKS
CHANUTE        SUNNY     61  34  36 SE7       30.11F
COFFEYVILLE    SUNNY     64  34  32 VRB6      30.11F
HUTCHINSON     SUNNY     74  34  23 S14       30.02F
MEDICINE LODGE   N/A     75  33  21 S10       30.03F
NEWTON         SUNNY     68  34  28 S14       30.06F
PARSONS        SUNNY     62  36  37 VRB6      30.12F
WICHITA INTL   MOSUNNY   69  36  29 S14       30.04F
WICHITA JABRA  SUNNY     69  33  26 S16       30.04F
WINFIELD       SUNNY     69  31  24 S12       30.08F
$$

KSZ007>012-019>026-033>040-048>060-102>105-272100-
NORTHEAST KANSAS

CITY           SKY/WX    TMP DP  RH WIND       PRES   REMARKS
CONCORDIA      SUNNY     64  34  32 SE12      29.99F
EMPORIA        SUNNY     61  33  35 S13       30.07F
LAWRENCE       SUNNY     56  33  42 SE8       30.10F
MANHATTAN      SUNNY     64  34  32 S12       30.04F
MARYSVILLE     SUNNY     61  34  36 S12       30.03F
OLATHE IND     SUNNY     54  33  45 SE8       30.11F
OLATHE EXE     SUNNY     54  32  43 S7        30.10F
SALINA         SUNNY     71  36  27 S13       30.00F
TOPEKA BILLARD SUNNY     59  33  37 SE10      30.08F
TOPEKA FORBES  SUNNY     59  32  36 SE10      30.08F
$$


USA.gov is the U.S. government's official web portal to all federal, state and local government web resources and services.